Location: Castelbiague
(43.0361°N, 0.9246°E)
Time: 16:45:03
(UTC+00:00)

Okean 2 - Pass Details

Date: 17 June 2021
Orbit: 560 x 575 km, 82.5° (Epoch: 31 July)

Event Time Altitude Azimuth Distance (km) Brightness Sun altitude
Rises 20:39:47 0° 198° (SSW) 2,746 6.6 -9.5°
Reaches altitude 10° 20:41:59 10° 203° (SSW) 1,852 5.8 -9.8°
Maximum altitude 20:45:59 54° 281° (W) 690 4.2 -10.3°
Drops below altitude 10° 20:50:00 10° 359° (N) 1,861 6.8 -10.8°
Sets 20:52:14 0° 4° (N) 2,761 7.6 -11.1°
